TimeMST,TemperatureF,Dew PointF,Humidity,Sea Level PressureIn,VisibilityMPH,Wind Direction,Wind SpeedMPH,Gust SpeedMPH,PrecipitationIn,Events,Conditions,WindDirDegrees,DateUTC
12:15 AM,5.4,2.7,89,29.97,0.8,West,6.9,-,N/A,Snow,Light Snow,260,2012-12-10 07:15:00
12:35 AM,2.8,-0.2,87,29.94,1.2,West,4.6,-,N/A,,Mostly Cloudy,260,2012-12-10 07:35:00
12:55 AM,-0.2,-3.8,85,29.94,7.0,WNW,4.6,-,N/A,Snow,Light Snow,290,2012-12-10 07:55:00
1:15 AM,1.9,-1.1,87,29.92,10.0,West,4.6,-,N/A,,Clear,270,2012-12-10 08:15:00
1:55 AM,2.5,-0.8,86,29.91,10.0,Calm,Calm,-,N/A,,Clear,0,2012-12-10 08:55:00
2:15 AM,2.8,-0.2,87,29.91,10.0,SW,3.5,-,N/A,,Clear,230,2012-12-10 09:15:00
2:35 AM,1.2,-2.2,86,29.91,10.0,SW,6.9,-,N/A,,Clear,230,2012-12-10 09:35:00
2:55 AM,1.8,-2.9,81,29.89,10.0,WSW,6.9,-,N/A,,Clear,250,2012-12-10 09:55:00
3:15 AM,1.0,-4.2,79,29.89,10.0,West,9.2,-,N/A,,Clear,280,2012-12-10 10:15:00
3:35 AM,-0.4,-6.5,75,29.88,10.0,WNW,5.8,-,N/A,,Clear,290,2012-12-10 10:35:00
3:55 AM,0.5,-6.0,74,29.87,10.0,West,3.5,-,N/A,,Clear,280,2012-12-10 10:55:00
4:15 AM,3.0,-5.6,67,29.86,10.0,WNW,4.6,-,N/A,,Clear,300,2012-12-10 11:15:00
4:55 AM,4.6,-4.2,67,29.85,10.0,WNW,5.8,-,N/A,,Clear,300,2012-12-10 11:55:00
5:15 AM,5.7,-3.8,65,29.86,10.0,West,5.8,-,N/A,,Clear,280,2012-12-10 12:15:00
5:35 AM,6.4,-4.9,60,29.86,10.0,West,8.1,-,N/A,,Clear,280,2012-12-10 12:35:00
6:15 AM,9.9,-1.1,61,29.86,10.0,NW,11.5,-,N/A,,Clear,310,2012-12-10 13:15:00
6:35 AM,11.3,-0.6,59,29.87,10.0,NW,9.2,-,N/A,,Clear,310,2012-12-10 13:35:00
6:55 AM,11.7,-0.8,58,29.87,10.0,West,6.9,-,N/A,,Clear,270,2012-12-10 13:55:00
7:15 AM,14.9,1.4,55,29.87,10.0,West,11.5,-,N/A,,Clear,270,2012-12-10 14:15:00
7:35 AM,17.6,2.1,51,29.86,10.0,WNW,12.7,-,N/A,,Clear,290,2012-12-10 14:35:00
7:55 AM,18.3,2.3,50,29.84,10.0,West,11.5,-,N/A,,Clear,280,2012-12-10 14:55:00
8:15 AM,20.3,3.0,47,29.86,10.0,WNW,5.8,-,N/A,,Clear,300,2012-12-10 15:15:00
8:35 AM,22.3,4.3,46,29.85,10.0,WNW,12.7,-,N/A,,Clear,290,2012-12-10 15:35:00
8:55 AM,24.3,4.5,43,29.85,10.0,West,9.2,-,N/A,,Clear,280,2012-12-10 15:55:00
9:15 AM,27.3,5.9,40,29.85,10.0,WNW,12.7,-,N/A,,Clear,290,2012-12-10 16:15:00
9:35 AM,28.9,6.4,39,29.84,10.0,WNW,10.4,-,N/A,,Clear,290,2012-12-10 16:35:00
9:55 AM,30.6,7.7,38,29.86,10.0,West,11.5,-,N/A,,Clear,280,2012-12-10 16:55:00
10:15 AM,32.0,7.7,36,29.85,10.0,WNW,6.9,-,N/A,,Clear,290,2012-12-10 17:15:00
10:35 AM,32.2,7.5,36,29.84,10.0,West,6.9,-,N/A,,Clear,270,2012-12-10 17:35:00
10:55 AM,33.6,8.2,35,29.84,10.0,NNW,8.1,-,N/A,,Clear,340,2012-12-10 17:55:00
11:15 AM,33.8,8.4,35,29.84,10.0,NNW,9.2,-,N/A,,Clear,330,2012-12-10 18:15:00
11:35 AM,35.1,11.3,37,29.84,10.0,NW,8.1,-,N/A,,Clear,310,2012-12-10 18:35:00
11:55 AM,34.9,10.0,36,29.83,10.0,WNW,11.5,-,N/A,,Clear,300,2012-12-10 18:55:00
12:15 PM,33.1,7.7,35,29.83,10.0,NNW,9.2,17.3,N/A,,Clear,330,2012-12-10 19:15:00
12:35 PM,36.0,8.2,32,29.82,10.0,NNW,9.2,-,N/A,,Scattered Clouds,330,2012-12-10 19:35:00
12:55 PM,33.6,9.5,37,29.81,10.0,North,13.8,17.3,N/A,,Scattered Clouds,10,2012-12-10 19:55:00
1:15 PM,30.6,10.0,42,29.81,10.0,North,12.7,19.6,N/A,,Clear,360,2012-12-10 20:15:00
1:35 PM,32.0,9.1,38,29.80,10.0,North,9.2,-,N/A,,Clear,350,2012-12-10 20:35:00
1:55 PM,31.5,8.2,38,29.81,10.0,North,11.5,-,N/A,,Clear,350,2012-12-10 20:55:00
2:15 PM,32.0,7.7,36,29.81,10.0,North,16.1,20.7,N/A,,Mostly Cloudy,360,2012-12-10 21:15:00
2:35 PM,31.6,7.3,36,29.80,10.0,North,12.7,-,N/A,,Overcast,350,2012-12-10 21:35:00
2:55 PM,31.5,8.2,38,29.80,10.0,North,11.5,-,N/A,,Overcast,350,2012-12-10 21:55:00
3:15 PM,31.6,7.5,36,29.80,10.0,NNW,9.2,-,N/A,,Mostly Cloudy,340,2012-12-10 22:15:00
3:35 PM,30.7,7.5,38,29.81,10.0,NNW,8.1,16.1,N/A,,Mostly Cloudy,340,2012-12-10 22:35:00
3:55 PM,30.2,7.5,39,29.81,10.0,NNW,10.4,-,N/A,,Overcast,340,2012-12-10 22:55:00
4:15 PM,29.7,8.4,41,29.81,10.0,NNW,6.9,-,N/A,,Overcast,330,2012-12-10 23:15:00
4:35 PM,28.4,11.7,50,29.82,10.0,NNW,6.9,-,N/A,,Overcast,340,2012-12-10 23:35:00
4:55 PM,28.9,8.2,42,29.82,10.0,NNW,6.9,-,N/A,,Overcast,340,2012-12-10 23:55:00
5:15 PM,28.4,9.3,45,29.84,10.0,NW,11.5,-,N/A,,Overcast,320,2012-12-11 00:15:00
5:35 PM,28.2,12.7,52,29.84,10.0,NNW,10.4,17.3,N/A,,Overcast,340,2012-12-11 00:35:00
5:55 PM,26.4,13.8,59,29.85,10.0,West,6.9,-,N/A,,Overcast,270,2012-12-11 00:55:00
6:15 PM,24.6,12.0,59,29.86,10.0,West,5.8,-,N/A,,Scattered Clouds,270,2012-12-11 01:15:00
6:35 PM,23.9,11.7,60,29.86,10.0,WNW,4.6,-,N/A,,Scattered Clouds,290,2012-12-11 01:35:00
6:55 PM,22.1,10.0,60,29.86,10.0,NW,6.9,-,N/A,,Clear,320,2012-12-11 01:55:00
7:15 PM,20.1,9.0,62,29.86,10.0,NW,6.9,-,N/A,,Clear,310,2012-12-11 02:15:00
7:55 PM,17.2,7.7,66,29.87,10.0,NW,5.8,-,N/A,,Clear,320,2012-12-11 02:55:00
8:15 PM,16.9,7.9,68,29.88,10.0,North,6.9,-,N/A,,Scattered Clouds,10,2012-12-11 03:15:00
8:35 PM,16.7,7.2,66,29.88,10.0,NNW,4.6,-,N/A,,Scattered Clouds,330,2012-12-11 03:35:00
8:55 PM,15.3,6.1,67,29.88,10.0,NNW,4.6,-,N/A,,Scattered Clouds,330,2012-12-11 03:55:00
9:15 PM,15.8,7.7,70,29.89,10.0,NW,8.1,-,N/A,,Overcast,320,2012-12-11 04:15:00
9:35 PM,19.0,7.3,60,29.89,10.0,North,8.1,-,N/A,,Overcast,350,2012-12-11 04:35:00
9:55 PM,20.3,6.8,56,29.90,10.0,North,5.8,-,N/A,,Mostly Cloudy,360,2012-12-11 04:55:00
10:15 PM,19.2,6.8,59,29.90,10.0,NE,5.8,-,N/A,,Scattered Clouds,40,2012-12-11 05:15:00
10:35 PM,18.0,7.2,63,29.90,10.0,NNE,8.1,-,N/A,,Clear,20,2012-12-11 05:35:00
10:55 PM,17.4,8.4,68,29.91,10.0,NE,6.9,-,N/A,,Scattered Clouds,40,2012-12-11 05:55:00
11:15 PM,19.0,10.4,69,29.91,10.0,North,5.8,-,N/A,,Mostly Cloudy,350,2012-12-11 06:15:00
11:35 PM,18.5,10.4,71,29.92,10.0,North,5.8,-,N/A,,Mostly Cloudy,10,2012-12-11 06:35:00
11:55 PM,17.1,11.1,77,29.92,10.0,North,5.8,-,N/A,,Mostly Cloudy,10,2012-12-11 06:55:00